STARLINK-2743 (48682 NORAD) Tracking and Keplerian Element Data

This shows tracking and keplerian element data for the satellite.

Feedback or suggestion? Click here.




ElementValue
Catalog48682
NameSTARLINK-2743
Epoch Orbit1101
Epoch Day211.25001157
Epoch Year2021
RAAN104.2186
Inclination53.0457
Eccentricity0.0002171
Argument of Perigee26.7188
Mean Anonmoly155.786
Mean Motion15.73236729
Decay Rate-0.00025416
L11 48682U 21044AW 21211.25001157 -.00025416 00000-0 -17687-3 0 9999
L22 48682 53.0457 104.2186 0002171 26.7188 155.7860 15.73236729 11019

Live tracking and technical data element details for STARLINK-2743 (NORAD 48682). STARLINK-2743 can be tracked NOW for your location showing map with azimuth and elevation plus other details from your city location.

Track the satellite on the map from your city or location and see movement details for azimuth, elevation, latitude, longitude, range, height, and movement on the map or in text.







IsCatalogInMostPopularTable: catalog: 48682, numindb: 15
Update: records affected: 1



GetName: 48682 STARLINK-2743

Hit Count: updated at: Sat, 31 Jul 2021 14:25:49 GMT